Location: Morlupo
(42.1333°N, 12.5000°E)
Time: 16:26:07
(UTC+00:00)

Cosmos 2285 Rocket - Pass Details

Date: 18 September 2020
Orbit: 970 x 1000 km, 74.0° (Epoch: 25 October)

Event Time Altitude Azimuth Distance (km) Brightness Sun altitude
Rises 19:30:41 0° 197° (SSW) 3,648 6.9 -25.2°
Reaches altitude 10° 19:33:12 10° 197° (SSW) 2,707 6.2 -25.6°
Maximum altitude 19:39:29 87° 109° (ESE) 982 3.9 -26.7°
Drops below altitude 10° 19:45:51 10° 21° (NNE) 2,739 6.4 -27.7°
Sets 19:48:24 0° 21° (NNE) 3,696 7.2 -28.1°
